AirNav   Air Wisconsin pilot careers
 
 602 users online  

2E7 Mc Lean/Gray County Airport
Mc Lean, Texas, USA

GOING TO MC LEAN?


FAA INFORMATION EFFECTIVE 26 APRIL 2018

Location

FAA Identifier: 2E7
Lat/Long: 35-14-48.7000N / 100-32-48.5000W
35-14.811667N / 100-32.808333W
35.2468611 / -100.5468056
(estimated)
Elevation: 2835 ft. / 864 m (estimated)
Variation: 08E (1985)
From city: 3 miles E of MC LEAN, TX
Time zone: UTC -5 (UTC -6 during Standard Time)
Zip code: 79057

Airport Operations

Airport use: Open to the public
Activation date: 09/1955
Control tower: no
ARTCC: ALBUQUERQUE CENTER
FSS: FORT WORTH FLIGHT SERVICE STATION
NOTAMs facility: FTW (NOTAM-D service available)
Attendance: UNATNDD
Wind indicator: lighted
Segmented circle: yes
Lights: SS-SR
Beacon: white-green (lighted land airport)
ROTG BCN OTS INDEFLY. Operates sunset to sunrise.

Airport Communications

CTAF: 122.9

Airport Services

Parking: tiedowns
Airframe service: NONE
Powerplant service: NONE
Bottled oxygen: NONE
Bulk oxygen: NONE

Runway Information

Runway 17/35

Dimensions: 3225 x 50 ft. / 983 x 15 m
Surface: asphalt, in good condition
Weight bearing capacity: 
Single wheel: 12.5
Runway edge lights: non-standard
NSTD FRUIT JAR LGTS ON NON-FRANGIBLE METAL CONDUIT.
RUNWAY 17  RUNWAY 35
Latitude: 35-15.078170N35-14.546432N
Longitude: 100-32.808078W100-32.807187W
Elevation: 2822.0 ft.2823.0 ft.
Gradient: 0.4%0.4%
Traffic pattern: leftleft
Runway heading: 172 magnetic, 180 true352 magnetic, 360 true
Markings: basic, in good conditionbasic, in good condition
Obstructions: 6 ft. brush, 300 ft. from runway, 120 ft. right of centerline, 16:1 slope to clear10 ft. road, 464 ft. from runway, 26:1 slope to clear

Airport Ownership and Management from official FAA records

Ownership: Publicly-owned
Owner: GRAY COUNTY
205 N. RUSSELL
PAMPA, TX 79065
Phone 806-669-8007
Manager: JEFF HALEY
PO BOX 42
MCLEAN, TX 79057
Phone (806) 662-7331
COUNTY COMMISSIONER.

Airport Operational Statistics

Aircraft operations: avg 42/month *
100% transient general aviation
* for 12-month period ending 11 November 2015

Additional Remarks

RY 17/35 TRANSITIONAL SURFACE OBSTRUCT BY +35 FT TREES WEST AND EAST OF RY CNTRLN.
WILDLIFE ON AND IN VICINITY OF AIRPORT.
NO LINE OF SIGHT BTN RY ENDS.

Instrument Procedures

There are no published instrument procedures at 2E7.

Some nearby airports with instrument procedures:

T59 - Wheeler Municipal Airport (21 nm NE)
KPPA - Perry Lefors Field Airport (31 nm NW)
KHHF - Hemphill County Airport (40 nm N)
T45 - Panhandle-Carson County Airport (41 nm W)
KBGD - Hutchinson County Airport (50 nm NW)
 
Loc | Ops | Rwys | IFR | FBO | Links
Com | Nav | Svcs | Stats | Notes

AirNav Hotels Sweepstakes
 
Area around 2E7 (Mc Lean/Gray County Airport)
 
Road maps at: MapQuest Bing Google
 
Aerial photo
No photo
 
Sectional chart

 
Airport distance calculator
Flying to Mc Lean/Gray County Airport? Find the distance to fly.

From to 2E7

Sunrise and sunset
Times for 22-May-2018
 Local
(UTC-5)
 Zulu
(UTC)
Morning civil twilight06:0611:06
Sunrise06:3411:34
Sunset20:4301:43
Evening civil twilight21:1202:12

Current date and time
Zulu (UTC)  23-May-2018 04:59:18
Local (UTC-5)  22-May-2018 23:59:18
 
METAR
KPPA 
26nm NW 
230435Z AUTO 15014G18KT 10SM CLR 22/16 A3004 RMK AO2 LTG DSNT NW T02210158
KHHF 
40nm N 
230435Z AUTO 14008KT 10SM CLR 23/17 A3000 RMK AO2 LTG DSNT W T02260170
KBPC 
45nm NW 
230435Z AUTO 15013KT 10SM 22/15 A3000 RMK AO2
KBGD 
50nm NW 
230451Z AUTO 15013G20KT 10SM CLR 23/16 A3000 RMK AO2 SLP118 T02330156
TAF
NOTAMs
Click for the latest NOTAMs
NOTAMs are issued by the DoD/FAA and will open in a separate window not controlled by AirNav.

 

 
 

Would you like to see your business listed on this page?

 If your business provides an interesting product or service to pilots, flight crews, aircraft, or users of the Mc Lean/Gray County Airport, you should consider listing it here.  To start the listing process, click on the button below
 
Add a business
 

Other Pages about Mc Lean/Gray County Airport

Update a link
 
Copyright © AirNav, LLC. All rights reserved. Privacy Policy  Contact